(123319) = 2000 VN10

Discovered at Socorro on 2000-11-01 by LINEAR.

Orbit

Orbit type: Main Belt

Note: WebGL enabled browser required.

epoch2024-03-31.0
epoch JD2460400.5
perihelion date2025-09-11.38755
perihelion JD2460929.88755
argument of perihelion (°)183.49144
ascending node (°)195.77844
inclination (°)3.41321
eccentricity0.2145853
perihelion distance (AU)2.0364641
Tisserand w.r.t. Jupiter3.4
ΔV w.r.t. Earth (km/sec)9.0
semimajor axis (AU)2.5928520
mean anomaly (°)235.02850
mean daily motion (°/day)0.23606810
aphelion distance (AU)3.149
period (years)4.18
P-vector [x]0.94400399
P-vector [y]0.30413252
P-vector [z]0.12790575
Q-vector [x]-0.32953663
Q-vector [y]0.88815483
Q-vector [z]0.32029144
absolute magnitude16.15
phase slope0.15
uncertainty0
referenceMPEC 2024-C115
observations used600
oppositions16
arc length (days)8256
first opposition used2000
last opposition used2023
residual rms (arc-secs)0.71
perturbers coarse indicatorM-v
perturbers precise indicator003Ek
first observation date used2000-09-09.0
last observation date used2023-04-18.0
computer nameMPCLINUX
JD of orbit computation2456760.778996
perihelion JD uncertainty (days)5.7797E-05
argument of perihelion uncertainty (°)7.0766E-05
ascending node uncertainty (°)6.9559E-05
inclination uncertainty (°)4.6460E-06
eccentricity uncertainty 4.0771E-08
perihelion distance uncertainty (AU)1.0745E-07
Minimum Orbit Intersection Distances (in AU)
for orbit epoch: 2460200.5, reference: E2024-CB5
Mercury1.69412
Venus1.31226
Earth1.03768
Mars0.60806
Jupiter2.30353
Saturn6.39538
Uranus15.3624
Neptune27.5498

Observations

605 total observations over interval: 2000 09 09.37973 – 2023 04 18.297480
These data are available for download (format description).

Date (UT) J2000 RA J2000 Dec Magn Location Ref
2000 09 09.37973 03 07 50.50 +16 56 03.0 19.3 R 699 – Lowell Observatory-LONEOS MPS 34353
2000 09 09.39514 03 07 51.16 +16 56 04.1   699 – Lowell Observatory-LONEOS MPS 34353
2000 09 09.41057 03 07 51.77 +16 56 05.5   699 – Lowell Observatory-LONEOS MPS 34353
2000 09 09.42599 03 07 52.17 +16 56 05.5   699 – Lowell Observatory-LONEOS MPS 34353
2000 11 01.27744 02 58 38.54 +13 52 45.2 18.1   704 – Lincoln Laboratory ETS, New Mexico MPS 21693
2000 11 01.29141 02 58 37.78 +13 52 40.7 18.6   704 – Lincoln Laboratory ETS, New Mexico MPS 21693
2000 11 01.30528 02 58 37.03 +13 52 35.3 18.5   704 – Lincoln Laboratory ETS, New Mexico MPS 21693
2000 11 01.31916 02 58 36.31 +13 52 30.2 18.2   704 – Lincoln Laboratory ETS, New Mexico MPS 21693
2000 11 02.27870 02 57 47.73 +13 46 40.2 18.0   704 – Lincoln Laboratory ETS, New Mexico MPS 21693
2000 11 02.29232 02 57 47.01 +13 46 35.3 18.2   704 – Lincoln Laboratory ETS, New Mexico MPS 21693
2000 11 02.30587 02 57 46.27 +13 46 30.3 19.0   704 – Lincoln Laboratory ETS, New Mexico MPS 21693
2000 11 02.31942 02 57 45.52 +13 46 26.1 18.6   704 – Lincoln Laboratory ETS, New Mexico MPS 21693
2000 11 02.33299 02 57 44.82 +13 46 20.8 18.4   704 – Lincoln Laboratory ETS, New Mexico MPS 21693
2000 11 27.21728 02 38 45.38 +11 38 48.7 18.0   704 – Lincoln Laboratory ETS, New Mexico MPS 34353
2000 11 27.23169 02 38 44.87 +11 38 45.1 18.5   704 – Lincoln Laboratory ETS, New Mexico MPS 34353
2000 11 27.24610 02 38 44.37 +11 38 42.4 18.7   704 – Lincoln Laboratory ETS, New Mexico MPS 34353
2000 11 27.25144 02 38 44.16 +11 38 41.2 18.4   704 – Lincoln Laboratory ETS, New Mexico MPS 34353
2000 11 27.26052 02 38 43.85 +11 38 39.4 18.6   704 – Lincoln Laboratory ETS, New Mexico MPS 34353
2000 11 27.27088 02 38 43.42 +11 38 36.3 19.1   704 – Lincoln Laboratory ETS, New Mexico MPS 34353
2000 11 27.27495 02 38 43.36 +11 38 36.9 18.7   704 – Lincoln Laboratory ETS, New Mexico MPS 34353
2000 11 27.28781 02 38 42.87 +11 38 33.4 19.5   704 – Lincoln Laboratory ETS, New Mexico MPS 34353
2000 11 27.30683 02 38 42.23 +11 38 29.3 19.6   704 – Lincoln Laboratory ETS, New Mexico MPS 34353
2000 11 27.32651 02 38 41.59 +11 38 25.7 19.3   704 – Lincoln Laboratory ETS, New Mexico MPS 34353
2002 02 11.39616 11 24 02.68 +00 53 46.8 20.4   704 – Lincoln Laboratory ETS, New Mexico MPS 54807
2002 02 11.41053 11 24 02.14 +00 53 50.9 19.7   704 – Lincoln Laboratory ETS, New Mexico MPS 54807
2002 02 11.42496 11 24 01.45 +00 53 54.5 20.4   704 – Lincoln Laboratory ETS, New Mexico MPS 54807
2002 03 13.26194 11 00 05.80 +03 44 14.7 19.8   704 – Lincoln Laboratory ETS, New Mexico MPS 54807
2002 03 13.27573 11 00 05.08 +03 44 21.4 20.2   704 – Lincoln Laboratory ETS, New Mexico MPS 54807
2002 03 13.28958 11 00 04.42 +03 44 24.7 20.1   704 – Lincoln Laboratory ETS, New Mexico MPS 54807
2002 03 13.30345 11 00 03.62 +03 44 30.9 20.4   704 – Lincoln Laboratory ETS, New Mexico MPS 54807
2002 03 13.31737 11 00 02.87 +03 44 35.8 20.5   704 – Lincoln Laboratory ETS, New Mexico MPS 54807
2004 08 08.42330 00 42 29.10 +07 13 40.9 19.0 R 699 – Lowell Observatory-LONEOS MPS 111010
2004 08 08.43543 00 42 29.39 +07 13 42.3   699 – Lowell Observatory-LONEOS MPS 111010
2004 08 08.44760 00 42 29.80 +07 13 43.9   699 – Lowell Observatory-LONEOS MPS 111010
2004 08 08.45975 00 42 30.05 +07 13 44.9   699 – Lowell Observatory-LONEOS MPS 111010
2004 09 09.23771 00 43 03.06 +06 32 24.3 18.7   704 – Lincoln Laboratory ETS, New Mexico MPS 112596
2004 09 09.24910 00 43 02.77 +06 32 21.0 18.8   704 – Lincoln Laboratory ETS, New Mexico MPS 112596
2004 09 09.26050 00 43 02.44 +06 32 17.7 19.0   704 – Lincoln Laboratory ETS, New Mexico MPS 112596
2004 09 09.27191 00 43 02.11 +06 32 14.5 19.0   704 – Lincoln Laboratory ETS, New Mexico MPS 112596
2004 09 09.28331 00 43 01.82 +06 32 10.9 19.3   704 – Lincoln Laboratory ETS, New Mexico MPS 112596
2004 09 09.36361 00 42 59.59 +06 31 47.9 18.2 R 699 – Lowell Observatory-LONEOS MPS 112663
2004 09 09.37656 00 42 59.18 +06 31 44.9   699 – Lowell Observatory-LONEOS MPS 112663
2004 09 09.38950 00 42 58.85 +06 31 41.1   699 – Lowell Observatory-LONEOS MPS 112663
2004 09 09.40245 00 42 58.51 +06 31 36.6   699 – Lowell Observatory-LONEOS MPS 112663
2004 09 13.28455 00 41 06.52 +06 11 19.5 18.1   704 – Lincoln Laboratory ETS, New Mexico MPS 112663
2004 09 13.29592 00 41 06.14 +06 11 15.6 18.4   704 – Lincoln Laboratory ETS, New Mexico MPS 112663
2004 09 13.30730 00 41 05.75 +06 11 11.4 18.4   704 – Lincoln Laboratory ETS, New Mexico MPS 112663
2004 09 13.31869 00 41 05.36 +06 11 07.7 18.8   704 – Lincoln Laboratory ETS, New Mexico MPS 112663
2004 09 13.33007 00 41 04.96 +06 11 04.2 18.9   704 – Lincoln Laboratory ETS, New Mexico MPS 112663
2004 09 17.27497 00 38 50.68 +05 47 34.4 18.1   704 – Lincoln Laboratory ETS, New Mexico MPS 114194
2004 09 17.28664 00 38 50.21 +05 47 30.5 18.4   704 – Lincoln Laboratory ETS, New Mexico MPS 114194
2004 09 17.29832 00 38 49.77 +05 47 26.1 18.7   704 – Lincoln Laboratory ETS, New Mexico MPS 114194
2004 09 17.31000 00 38 49.30 +05 47 21.8 18.6   704 – Lincoln Laboratory ETS, New Mexico MPS 114194
2004 09 17.32169 00 38 48.84 +05 47 17.3 18.5   704 – Lincoln Laboratory ETS, New Mexico MPS 114194
2004 09 22.28654 00 35 36.61 +05 14 20.9 18.1   704 – Lincoln Laboratory ETS, New Mexico MPS 114194
2004 09 22.29871 00 35 36.10 +05 14 15.7 18.6   704 – Lincoln Laboratory ETS, New Mexico MPS 114194
2004 09 22.31085 00 35 35.54 +05 14 11.0 18.5   704 – Lincoln Laboratory ETS, New Mexico MPS 114194
2004 09 22.32298 00 35 35.01 +05 14 05.7 18.6   704 – Lincoln Laboratory ETS, New Mexico MPS 114194
2004 09 22.33513 00 35 34.50 +05 14 00.6 18.6   704 – Lincoln Laboratory ETS, New Mexico MPS 114194
2004 09 24.28753 00 34 13.72 +05 00 14.5 18.6   704 – Lincoln Laboratory ETS, New Mexico MPS 115204
2004 09 24.29975 00 34 13.14 +05 00 08.6 18.5   704 – Lincoln Laboratory ETS, New Mexico MPS 115204
2004 09 24.31192 00 34 12.62 +05 00 03.2 18.9   704 – Lincoln Laboratory ETS, New Mexico MPS 115204
2004 09 24.32413 00 34 12.07 +04 59 59.0 18.6   704 – Lincoln Laboratory ETS, New Mexico MPS 115204
2004 09 24.33633 00 34 11.53 +04 59 53.0 18.5   704 – Lincoln Laboratory ETS, New Mexico MPS 115204
2004 10 05.22973 00 26 18.90 +03 38 50.2 17.5 R 699 – Lowell Observatory-LONEOS MPS 115635
2004 10 05.24999 00 26 17.95 +03 38 41.5   699 – Lowell Observatory-LONEOS MPS 115635
2004 10 05.27028 00 26 17.00 +03 38 32.1   699 – Lowell Observatory-LONEOS MPS 115635
2004 10 05.29057 00 26 16.05 +03 38 22.9   699 – Lowell Observatory-LONEOS MPS 115635
2004 10 07.18785 00 24 55.17 +03 24 10.6 18.1 V 691 – Steward Observatory, Kitt Peak-Spacewatch MPS 115635
2004 10 07.21462 00 24 53.98 +03 23 58.7 18.0 V 691 – Steward Observatory, Kitt Peak-Spacewatch MPS 115635
2004 10 07.24156 00 24 52.75 +03 23 46.7 18.1 V 691 – Steward Observatory, Kitt Peak-Spacewatch MPS 115635
2004 10 07.27994 00 24 50.94 +03 23 29.9 17.8   704 – Lincoln Laboratory ETS, New Mexico MPS 115635
2004 10 07.29138 00 24 50.43 +03 23 24.8 18.1   704 – Lincoln Laboratory ETS, New Mexico MPS 115635
2004 10 07.30239 00 24 49.92 +03 23 20.1 18.2   704 – Lincoln Laboratory ETS, New Mexico MPS 115635
2004 10 07.31348 00 24 49.42 +03 23 14.7 18.1   704 – Lincoln Laboratory ETS, New Mexico MPS 115635
2004 10 07.32464 00 24 48.91 +03 23 09.9 18.2   704 – Lincoln Laboratory ETS, New Mexico MPS 115635
2004 10 08.21252 00 24 11.95 +03 16 33.8 17.5 R 699 – Lowell Observatory-LONEOS MPS 116465
2004 10 08.23278 00 24 11.06 +03 16 25.3   699 – Lowell Observatory-LONEOS MPS 116465
2004 10 08.25306 00 24 10.13 +03 16 16.0   699 – Lowell Observatory-LONEOS MPS 116465
2004 10 08.27333 00 24 09.26 +03 16 06.9   699 – Lowell Observatory-LONEOS MPS 116465
2004 10 09.19796 00 23 31.05 +03 09 19.0 17.9   704 – Lincoln Laboratory ETS, New Mexico MPS 116465
2004 10 09.20867 00 23 30.59 +03 09 14.0 18.3   704 – Lincoln Laboratory ETS, New Mexico MPS 116465
2004 10 09.21939 00 23 30.11 +03 09 09.3 18.4   704 – Lincoln Laboratory ETS, New Mexico MPS 116465
2004 10 09.23010 00 23 29.64 +03 09 04.6 18.2   704 – Lincoln Laboratory ETS, New Mexico MPS 116465
